Theta_e
312 312 310 307 306 304 299 289 276 294 293 277 281 269 270 283 281 285 283 281 278 271 275 271 274 274 277 282 281 276 280 276 271 274 281 284 282 277 277 271 274 276 275 275
312 311 310 308 304 302 293 285 281 292 287 269 265 274 278 280 280 280 281 279 280 274 270 271 273 276 281 282 280 278 280 275 268 271 278 282 276 278 276 276 277 276 273 275
312 311 309 308 304 301 292 283 274 278 281 279 276 272 271 273 282 281 283 282 281 274 268 276 272 276 280 282 282 285 283 277 273 268 272 276 272 274 275 274 269 272 273 273
312 311 309 307 305 301 292 282 274 273 269 271 277 277 277 275 274 282 282 278 273 272 269 272 267 276 279 281 284 281 280 274 276 276 277 277 273 273 273 270 271 270 274 272
312 310 309 307 305 302 290 281 277 274 269 278 278 279 275 278 278 278 276 271 274 272 269 273 273 277 277 276 280 279 281 273 276 274 279 276 272 273 274 272 271 272 275 272
311 310 309 307 305 301 287 285 283 282 279 278 274 276 278 278 279 280 281 279 277 272 274 279 280 281 280 280 278 278 277 276 273 271 277 278 269 271 273 271 272 271 268 274
311 310 308 307 306 300 291 288 285 278 268 273 278 279 279 279 279 278 280 280 273 280 285 282 280 279 280 280 280 281 276 277 275 270 273 265 273 277 276 274 272 272 272 272
310 309 308 308 306 303 292 289 287 279 268 275 280 279 278 278 279 279 279 280 282 284 280 272 268 268 270 272 279 281 283 279 272 272 271 275 275 275 272 272 271 273 271 271
310 309 308 307 306 302 292 289 289 284 275 273 281 277 278 273 271 274 279 283 284 282 277 266 262 267 264 272 274 283 282 280 274 269 267 265 273 275 278 278 270 274 272 271
309 308 307 307 305 303 293 288 288 286 275 278 276 274 275 278 274 272 277 279 278 280 268 265 267 265 266 269 270 272 274 272 267 267 270 273 275 276 278 267 268 274 274 272
309 308 307 306 304 302 293 287 287 285 279 281 279 280 276 278 276 270 276 276 275 271 268 271 272 268 268 269 272 275 274 270 269 266 269 268 277 275 268 272 276 275 274 273
308 308 307 305 303 302 295 286 288 288 281 278 283 283 285 283 282 278 280 278 276 279 267 270 273 266 267 268 269 278 273 276 272 273 273 278 277 274 276 276 274 274 275 275
308 307 306 305 303 302 295 286 286 285 280 281 282 279 282 285 284 287 278 281 280 280 281 278 276 272 275 269 270 273 278 280 277 278 278 275 274 277 277 277 275 275 275 274
307 306 305 304 303 300 294 287 287 284 279 272 277 284 281 283 285 286 287 284 284 284 283 279 276 274 280 274 276 276 277 278 278 278 279 276 275 275 276 275 275 274 273 273
306 306 305 304 301 298 290 286 286 283 279 271 277 280 282 283 284 285 286 285 283 282 279 277 276 279 278 278 277 275 277 278 278 276 278 277 275 274 275 273 273 274 273 271
306 305 304 302 299 296 288 281 285 285 282 273 268 278 278 280 283 283 284 284 283 282 279 278 280 282 278 275 275 277 277 278 279 277 278 275 274 274 274 272 271 271 271 270
305 304 302 300 298 288 283 282 284 288 284 273 266 273 278 279 279 281 281 282 279 279 279 277 278 279 277 276 270 277 276 276 274 275 276 275 275 272 270 268 267 266 265 264
304 302 300 297 295 291 282 283 288 285 279 273 265 264 273 279 276 276 279 277 278 275 275 276 274 273 270 271 275 277 276 274 272 273 272 274 272 271 270 269 268 266 265 264
301 298 296 291 286 282 279 289 286 282 279 268 264 266 264 278 278 277 276 278 273 268 268 265 262 258 264 272 275 276 274 274 274 270 269 268 268 267 266 265 264 264 263 261
299 294 286 280 282 290 288 280 274 274 271 268 266 263 264 276 276 274 269 271 271 259 263 260 257 263 268 271 269 274 275 272 271 268 264 263 261 265 263 263 261 262 262 260
288 282 277 282 288 283 279 270 268 265 267 265 264 266 269 274 267 264 267 260 257 259 262 261 254 263 270 266 266 266 272 272 269 264 264 267 268 266 262 258 260 261 260 259
287 282 283 282 281 277 272 265 262 264 269 264 268 267 267 265 268 264 261 260 258 261 255 258 258 269 265 265 261 261 265 268 264 262 267 266 267 265 263 262 260 259 257 257
286 283 278 279 275 267 267 266 266 263 265 265 263 265 266 263 267 260 260 260 262 256 257 262 268 266 259 261 260 255 254 259 261 258 258 261 260 261 261 259 254 257 257 255
285 280 274 276 270 269 270 271 272 268 267 269 265 264 265 261 263 260 262 259 259 257 259 266 269 268 266 262 256 261 259 260 262 261 259 260 261 257 255 258 259 258 257 254
283 283 279 273 271 264 264 264 266 265 273 269 266 264 268 258 261 260 258 258 259 263 268 269 270 260 265 261 259 259 260 260 260 258 260 258 257 258 254 253 255 256 256 256
280 278 274 270 270 263 264 265 264 264 272 266 267 263 264 262 262 261 263 264 264 270 269 267 259 262 263 261 261 261 261 261 259 259 260 258 258 258 257 252 255 256 257 256
277 274 273 272 270 270 269 267 267 266 267 267 265 266 268 263 260 262 263 267 270 270 263 258 259 263 263 261 259 259 260 259 259 257 257 257 253 256 257 256 253 254 253 254
Wind_Speed
12 10 9 6 3 4 5 3 3 4 2 7 3 3 4 4 5 4 5 3 5 5 4 5 4 6 5 12 12 17 4 5 7 17 7 7 8 12 8 5 2 1 2 3
13 12 10 7 3 3 3 2 3 3 5 5 4 5 3 3 3 3 4 3 3 1 4 7 4 6 6 16 19 5 7 3 8 11 4 4 12 18 22 10 6 4 4 6
15 13 11 9 5 3 5 4 3 6 6 1 5 3 3 6 4 5 5 6 4 5 3 5 9 11 10 18 17 7 13 4 5 5 10 11 16 21 26 16 6 5 9 10
16 15 13 11 7 5 5 3 2 5 2 5 2 4 2 3 5 3 2 4 2 1 5 10 5 6 17 6 6 9 5 4 6 13 13 3 21 21 25 22 18 9 13 14
18 16 14 13 9 7 5 4 5 3 2 1 3 1 3 3 4 3 5 3 7 5 5 8 20 14 11 7 7 14 2 5 6 3 11 7 19 24 19 19 20 10 13 15
19 18 16 14 12 5 3 0 2 5 2 1 4 3 3 5 4 4 5 5 7 4 8 7 15 16 15 16 16 6 4 4 5 5 8 1 7 23 12 18 22 11 12 10
21 19 18 15 13 7 4 3 4 5 3 3 4 2 2 6 3 4 5 4 1 7 14 15 5 3 7 7 11 7 7 8 1 5 5 8 5 17 9 7 25 25 18 17
22 20 19 16 12 8 4 2 4 4 1 3 3 4 4 7 6 3 3 2 3 12 8 6 8 7 7 5 5 7 5 5 5 4 4 1 14 21 14 8 15 25 21 20
24 22 20 17 14 10 5 1 2 4 6 5 3 2 2 2 3 6 4 3 6 7 3 6 6 6 4 8 18 4 6 4 5 5 6 9 14 24 21 8 16 24 20 19
24 23 21 19 17 12 5 2 2 5 5 2 3 2 2 1 1 2 4 7 8 5 4 5 5 5 3 6 9 9 9 6 8 8 7 5 15 25 13 11 5 16 14 13
24 24 23 21 18 14 5 1 2 5 4 1 1 2 1 2 3 2 5 3 6 5 7 3 3 2 4 3 4 7 5 6 5 5 7 7 19 10 10 4 4 7 10 11
27 25 24 22 19 14 7 4 2 3 6 3 2 4 4 3 1 1 3 3 2 2 4 4 2 4 4 1 5 6 5 4 2 5 3 3 3 3 4 4 3 6 7 7
28 27 26 23 21 15 7 4 4 5 4 3 1 1 3 5 5 3 1 2 0 2 1 0 0 1 1 3 3 3 2 1 2 3 4 3 1 2 2 2 4 7 9 9
30 28 25 23 20 16 10 4 4 4 4 5 1 0 3 6 4 4 3 2 1 2 1 0 0 1 1 2 3 2 3 3 1 2 3 5 3 4 3 5 5 8 10 10
31 28 27 24 22 17 9 4 1 3 7 5 3 1 2 3 4 3 2 2 0 1 1 1 2 0 1 2 1 3 2 4 3 4 4 2 3 3 5 7 7 7 8 10
31 30 28 26 24 18 5 3 1 2 4 6 3 1 1 3 2 2 2 2 1 0 1 1 2 2 1 1 3 4 3 2 1 4 4 5 7 6 3 6 6 8 10 10
33 32 30 27 20 6 4 5 3 6 3 5 3 2 1 1 2 0 1 2 1 1 0 1 2 0 1 2 4 5 7 5 2 3 7 3 4 4 6 8 7 7 9 9
33 32 29 23 24 14 5 3 5 3 5 4 5 1 1 1 2 2 1 1 1 2 1 0 1 3 1 6 8 5 7 7 4 3 3 2 10 7 7 6 5 9 9 7
37 35 28 7 6 2 2 8 8 3 5 4 3 6 5 3 2 2 1 1 2 1 1 2 3 2 7 11 10 14 12 10 11 7 7 6 7 8 7 6 4 7 6 5
37 11 6 3 1 15 10 6 4 5 4 4 4 2 3 4 4 3 3 2 1 1 4 2 3 7 6 7 3 5 12 9 15 10 4 4 4 8 6 7 5 6 7 7
5 5 4 1 7 2 3 2 4 2 3 2 3 4 6 2 5 4 1 3 1 2 5 4 4 7 6 5 8 6 11 13 9 1 3 5 8 13 9 6 6 7 8 8
11 15 9 3 2 3 5 3 2 3 7 1 6 4 4 1 3 5 2 4 3 4 1 4 5 9 4 7 6 5 8 11 7 2 8 6 9 11 10 10 9 8 6 7
6 7 6 4 1 2 9 10 5 3 6 6 4 3 4 2 2 4 4 4 6 2 3 7 9 3 3 6 6 3 3 7 8 5 5 8 9 8 8 9 4 7 7 6
5 6 8 8 6 8 8 6 6 4 6 10 4 4 4 3 4 3 6 4 4 3 1 9 5 7 9 8 4 9 8 6 8 8 8 10 11 8 6 7 10 10 10 7
5 6 7 8 3 3 0 2 4 0 8 6 5 4 3 1 5 1 5 4 5 8 9 6 5 5 11 11 9 8 10 9 8 7 10 9 9 9 7 5 7 8 9 8
3 3 4 2 3 1 0 2 3 2 7 3 4 5 5 2 6 4 9 7 9 7 6 4 4 6 8 8 8 7 9 10 9 8 9 10 11 12 10 7 7 8 9 9
4 2 1 3 1 4 4 4 4 3 4 4 5 6 8 4 3 3 6 9 6 5 4 2 5 7 10 9 8 7 9 9 9 7 7 7 6 10 9 10 6 6 3 5
Wind_Direction
189 193 193 180 237 334 61 54 22 294 26 53 48 101 198 265 281 287 278 238 220 235 313 302 281 268 284 346 332 328 304 290 285 290 305 238 356 342 336 271 237 174 252 303
187 187 187 182 200 69 102 91 252 319 75 80 329 319 308 259 282 289 310 277 192 183 322 325 249 282 276 321 330 311 337 308 308 337 39 51 2 345 344 312 195 318 22 353
185 183 180 176 181 127 86 78 18 334 39 132 130 63 289 302 246 255 248 264 325 1 295 229 279 290 311 325 311 329 346 260 243 262 284 313 352 358 8 11 30 329 24 349
183 181 178 173 181 133 93 49 241 180 318 332 48 108 188 277 326 262 316 314 168 174 300 298 239 253 314 295 324 0 311 286 282 291 263 154 30 8 15 19 2 31 9 15
181 178 177 171 172 126 77 128 135 340 168 257 20 40 272 275 293 267 288 180 283 186 219 211 292 307 326 286 309 328 335 278 321 307 116 72 41 14 22 17 6 5 16 32
179 177 176 172 172 135 109 231 19 103 305 42 70 230 264 269 344 284 239 315 308 286 245 250 266 267 270 264 293 310 293 307 328 308 323 353 26 9 10 25 26 346 16 3
177 175 175 173 173 145 126 186 119 89 266 98 208 270 278 274 259 249 278 321 74 265 313 303 307 262 245 241 271 270 291 309 276 287 339 40 3 14 357 5 25 15 12 360
174 171 175 172 172 168 100 164 115 118 177 171 310 286 267 308 309 297 260 295 275 302 329 7 1 350 16 331 249 299 265 310 322 14 22 301 8 355 343 352 28 12 5 5
173 170 171 166 162 143 94 99 120 107 116 258 186 258 314 299 319 330 290 317 319 2 20 49 44 23 280 336 329 350 356 33 47 352 71 22 342 337 330 271 39 359 5 15
172 168 167 161 157 151 112 110 65 93 106 238 102 165 209 325 30 242 319 336 350 27 25 63 33 329 197 7 342 339 335 354 43 5 67 37 347 335 342 61 308 340 2 18
170 165 164 156 156 147 98 97 27 117 114 147 99 354 103 4 60 94 283 23 352 17 47 53 3 22 285 348 272 336 352 345 360 12 54 18 7 352 55 324 332 335 9 23
164 165 159 151 158 153 117 104 3 58 80 154 97 113 53 76 87 208 356 122 26 41 66 11 31 349 8 286 346 340 35 11 17 44 76 54 345 40 2 15 349 355 32 38
162 162 158 155 163 161 112 122 146 71 102 72 145 218 340 35 24 289 6 98 253 76 124 85 280 356 357 7 320 299 322 335 85 166 166 141 85 171 35 346 52 36 49 61
159 157 156 153 156 138 116 124 162 93 116 115 183 170 30 310 7 39 18 87 177 113 143 15 345 273 348 313 269 310 241 355 22 72 111 139 122 51 41 60 54 68 51 54
153 155 154 150 145 120 88 82 127 135 126 168 143 34 10 320 7 2 28 25 3 122 114 218 222 197 286 259 327 259 209 190 167 206 167 146 101 85 65 76 60 57 87 78
153 153 150 144 138 127 89 24 279 161 120 102 90 70 61 352 359 281 77 47 23 43 160 226 268 131 207 263 249 244 210 182 193 162 116 84 108 91 89 95 80 68 68 64
152 146 142 142 137 81 120 181 191 149 92 94 77 120 15 44 3 221 67 39 62 19 122 235 324 187 198 230 233 213 182 151 95 84 116 84 197 133 87 93 95 88 78 60
137 134 127 117 103 111 50 341 69 76 89 77 114 261 96 190 180 174 0 136 62 39 357 136 214 353 286 246 224 176 159 136 113 158 76 105 107 103 102 106 110 90 85 92
123 117 106 76 41 92 203 119 76 61 125 150 111 149 208 167 184 101 64 11 207 348 203 223 84 275 228 222 186 180 175 178 159 111 89 90 115 138 136 130 99 113 121 113
121 95 76 107 291 129 124 18 34 10 333 37 163 83 152 179 160 175 87 315 219 224 247 68 120 257 252 234 201 172 163 135 134 116 130 149 176 170 156 178 167 152 151 134
79 108 85 52 122 70 44 65 107 298 320 148 199 143 139 261 134 184 189 183 234 73 257 128 290 272 240 168 146 157 145 158 178 148 97 144 143 162 156 155 165 145 149 151
124 110 101 119 150 67 116 213 324 176 219 238 135 192 143 193 113 103 275 140 44 226 155 72 272 249 210 161 162 149 145 149 142 157 155 161 143 152 150 158 151 155 144 132
95 77 100 162 92 84 179 195 245 223 167 177 166 128 128 52 61 64 96 99 209 55 62 232 232 247 202 172 143 114 124 131 132 118 99 121 122 120 147 143 133 134 131 141
98 132 143 194 181 235 193 183 170 187 118 140 122 107 129 171 80 149 108 246 73 54 343 238 247 212 175 161 144 137 173 159 150 150 142 140 144 146 116 131 144 144 149 166
131 145 182 198 164 45 249 116 92 328 140 128 93 63 99 37 97 76 103 43 246 208 225 229 237 195 151 162 170 165 160 162 164 156 153 147 140 140 130 149 145 137 146 152
101 100 114 59 87 275 196 118 116 235 150 96 68 119 87 227 138 108 212 139 222 239 220 219 144 161 157 158 174 160 148 162 157 161 155 148 153 155 149 142 152 161 158 152
117 156 114 131 100 143 161 141 185 138 101 157 125 119 189 101 62 255 193 207 222 222 246 226 184 174 170 151 137 147 155 149 149 146 157 146 120 128 141 154 182 155 134 138